Location: Dumpton Point
(51.3500°N, 1.4433°E)
Time: 02:28:23
(UTC+00:00)

In-Cosmos 22 Rocket - Pass Details

Date: 09 April 2020
Orbit: 790 x 889 km, 81.2° (Epoch: 06 June)

Event Time Altitude Azimuth Distance (km) Brightness Sun altitude
Rises 20:20:07 0° 347° (NNW) 3,507 8.2 -14.8°
Reaches altitude 10° 20:22:35 10° 348° (NNW) 2,566 7.4 -15.2°
Maximum altitude 20:28:28 83° 77° (ENE) 902 4.3 -15.9°
Enters shadow 20:32:56 18° 165° (SSE) 2,038 5.7 -16.5°
